• In Deutschland
  • Länderverzeichnis
  • Für 7 Tage
  • Wassertemperatur
  • Satellitenkarten
  • Wetterkarte
  • Widgets
  • user-avatar
    Anmelden

    Stündliche Wetter Kalgoorlie

    Heute, 27 Mai, Samstag

    Zeit Temperatur Niederschläge Wind Luftdruck Luftfeuchtigkeit
    00:00 +11°C° 0 mm 3 m/S 733 mmHg 76%
    01:00 +11°C° 0 mm 3 m/S 733 mmHg 76%
    02:00 +10°C° 0 mm 3 m/S 733 mmHg 78%
    03:00 +10°C° 0 mm 3 m/S 733 mmHg 80%
    04:00 +9°C° 0 mm 3 m/S 733 mmHg 83%
    05:00 +9°C° 0 mm 3 m/S 734 mmHg 85%
    06:00 +9°C° 0 mm 3 m/S 734 mmHg 86%
    07:00 +10°C° 0 mm 4 m/S 734 mmHg 88%
    08:00 +9°C° 0 mm 5 m/S 735 mmHg 88%
    09:00 +12°C° 0 mm 4 m/S 735 mmHg 80%
    10:00 +13°C° 0 mm 4 m/S 735 mmHg 72%
    11:00 +14°C° 0 mm 4 m/S 735 mmHg 64%
    12:00 +15°C° 0 mm 4 m/S 735 mmHg 59%
    13:00 +15°C° 0 mm 4 m/S 734 mmHg 55%
    14:00 +17°C° 0 mm 4 m/S 734 mmHg 50%
    15:00 +15°C° 0 mm 4 m/S 734 mmHg 53%
    16:00 +14°C° 0 mm 3 m/S 734 mmHg 56%
    17:00 +13°C° 0 mm 3 m/S 734 mmHg 59%
    18:00 +13°C° 0 mm 3 m/S 735 mmHg 62%
    19:00 +12°C° 0 mm 3 m/S 735 mmHg 65%
    20:00 +11°C° 0 mm 3 m/S 736 mmHg 68%
    21:00 +11°C° 0 mm 3 m/S 736 mmHg 71%
    22:00 +10°C° 0 mm 3 m/S 736 mmHg 73%
    23:00 +10°C° 0 mm 3 m/S 736 mmHg 75%

    Morgen, 28 Mai, Sonntag

    Zeit Temperatur Niederschläge Wind Luftdruck Luftfeuchtigkeit
    00:00 +10°C° 0 mm 3 m/S 736 mmHg 79%
    01:00 +9°C° 0 mm 3 m/S 736 mmHg 82%
    02:00 +9°C° 0 mm 3 m/S 736 mmHg 86%
    03:00 +8°C° 0 mm 3 m/S 736 mmHg 88%
    04:00 +8°C° 0 mm 2 m/S 736 mmHg 90%
    05:00 +8°C° 0 mm 2 m/S 736 mmHg 92%
    06:00 +8°C° 0 mm 2 m/S 736 mmHg 90%
    07:00 +9°C° 0 mm 2 m/S 737 mmHg 88%
    08:00 +9°C° 0 mm 2 m/S 737 mmHg 86%
    09:00 +10°C° 0 mm 2 m/S 737 mmHg 77%
    10:00 +13°C° 0 mm 2 m/S 737 mmHg 68%
    11:00 +15°C° 0 mm 2 m/S 737 mmHg 60%
    12:00 +15°C° 0 mm 2 m/S 737 mmHg 56%
    13:00 +16°C° 0 mm 2 m/S 736 mmHg 53%
    14:00 +17°C° 0 mm 2 m/S 735 mmHg 49%
    15:00 +16°C° 0 mm 2 m/S 735 mmHg 52%
    16:00 +15°C° 0 mm 2 m/S 736 mmHg 55%
    17:00 +14°C° 0 mm 2 m/S 736 mmHg 57%
    18:00 +13°C° 0 mm 3 m/S 736 mmHg 60%
    19:00 +12°C° 0 mm 3 m/S 736 mmHg 63%
    20:00 +11°C° 0 mm 3 m/S 737 mmHg 66%
    21:00 +11°C° 0 mm 3 m/S 737 mmHg 68%
    22:00 +10°C° 0 mm 3 m/S 737 mmHg 70%
    23:00 +10°C° 0 mm 3 m/S 737 mmHg 71%

    übermorgen, 29 Mai, Montag

    Zeit Temperatur Niederschläge Wind Luftdruck Luftfeuchtigkeit
    00:00 +9°C° 0 mm 3 m/S 737 mmHg 73%
    01:00 +9°C° 0 mm 2 m/S 736 mmHg 75%
    02:00 +9°C° 0 mm 2 m/S 736 mmHg 77%
    03:00 +8°C° 0 mm 2 m/S 736 mmHg 79%
    04:00 +8°C° 0 mm 2 m/S 736 mmHg 80%
    05:00 +8°C° 0 mm 2 m/S 736 mmHg 82%
    06:00 +8°C° 0 mm 2 m/S 736 mmHg 80%
    07:00 +9°C° 0 mm 2 m/S 737 mmHg 77%
    08:00 +9°C° 0 mm 2 m/S 737 mmHg 75%
    09:00 +12°C° 0 mm 2 m/S 737 mmHg 68%
    10:00 +14°C° 0 mm 2 m/S 737 mmHg 61%
    11:00 +15°C° 0 mm 2 m/S 737 mmHg 54%
    12:00 +16°C° 0 mm 2 m/S 737 mmHg 50%
    13:00 +18°C° 0 mm 1 m/S 736 mmHg 47%
    14:00 +18°C° 0 mm 1 m/S 736 mmHg 44%
    15:00 +16°C° 0 mm 1 m/S 736 mmHg 47%
    16:00 +15°C° 0 mm 2 m/S 736 mmHg 49%
    17:00 +14°C° 0 mm 2 m/S 736 mmHg 52%
    18:00 +14°C° 0 mm 2 m/S 737 mmHg 54%
    19:00 +12°C° 0 mm 3 m/S 737 mmHg 56%
    20:00 +12°C° 0 mm 3 m/S 737 mmHg 58%
    21:00 +11°C° 0 mm 3 m/S 737 mmHg 59%
    22:00 +11°C° 0 mm 3 m/S 738 mmHg 61%
    23:00 +10°C° 0 mm 3 m/S 738 mmHg 62%

    30 Mai, Dienstag

    Zeit Temperatur Niederschläge Wind Luftdruck Luftfeuchtigkeit
    00:00 +10°C° 0 mm 3 m/S 738 mmHg 64%
    01:00 +9°C° 0 mm 3 m/S 737 mmHg 66%
    02:00 +9°C° 0 mm 3 m/S 737 mmHg 67%
    03:00 +8°C° 0 mm 3 m/S 737 mmHg 68%
    04:00 +7°C° 0 mm 4 m/S 737 mmHg 70%
    05:00 +7°C° 0 mm 4 m/S 738 mmHg 71%
    06:00 +7°C° 0 mm 4 m/S 738 mmHg 68%
    07:00 +8°C° 0 mm 4 m/S 738 mmHg 66%
    08:00 +8°C° 0 mm 5 m/S 739 mmHg 64%
    09:00 +10°C° 0 mm 5 m/S 738 mmHg 57%
    10:00 +13°C° 0 mm 6 m/S 738 mmHg 50%
    11:00 +16°C° 0 mm 6 m/S 738 mmHg 43%
    12:00 +16°C° 0 mm 6 m/S 737 mmHg 41%
    13:00 +17°C° 0 mm 6 m/S 737 mmHg 38%
    14:00 +19°C° 0 mm 5 m/S 736 mmHg 36%
    15:00 +17°C° 0 mm 5 m/S 736 mmHg 38%
    16:00 +17°C° 0 mm 4 m/S 736 mmHg 41%
    17:00 +16°C° 0 mm 3 m/S 736 mmHg 44%
    18:00 +14°C° 0 mm 4 m/S 736 mmHg 45%
    19:00 +14°C° 0 mm 4 m/S 737 mmHg 47%
    20:00 +13°C° 0 mm 4 m/S 737 mmHg 49%
    21:00 +13°C° 0 mm 4 m/S 737 mmHg 50%
    22:00 +12°C° 0 mm 5 m/S 737 mmHg 51%
    23:00 +12°C° 0 mm 5 m/S 737 mmHg 53%

    31 Mai, Mittwoch

    Zeit Temperatur Niederschläge Wind Luftdruck Luftfeuchtigkeit
    00:00 +10°C° 0 mm 5 m/S 737 mmHg 54%
    01:00 +10°C° 0 mm 5 m/S 737 mmHg 54%
    02:00 +10°C° 0 mm 5 m/S 737 mmHg 55%
    03:00 +9°C° 0 mm 5 m/S 737 mmHg 56%
    04:00 +9°C° 0 mm 5 m/S 736 mmHg 57%
    05:00 +9°C° 0 mm 5 m/S 736 mmHg 58%
    06:00 +9°C° 0 mm 5 m/S 737 mmHg 56%
    07:00 +10°C° 0 mm 5 m/S 737 mmHg 54%
    08:00 +10°C° 0 mm 5 m/S 737 mmHg 53%
    09:00 +14°C° 0 mm 5 m/S 737 mmHg 46%
    10:00 +16°C° 0 mm 6 m/S 737 mmHg 40%
    11:00 +19°C° 0 mm 6 m/S 737 mmHg 34%
    12:00 +20°C° 0 mm 6 m/S 737 mmHg 32%
    13:00 +21°C° 0 mm 5 m/S 736 mmHg 30%
    14:00 +22°C° 0 mm 5 m/S 736 mmHg 29%
    15:00 +21°C° 0 mm 5 m/S 736 mmHg 32%
    16:00 +20°C° 0 mm 4 m/S 736 mmHg 34%
    17:00 +18°C° 0 mm 4 m/S 736 mmHg 37%
    18:00 +18°C° 0 mm 4 m/S 737 mmHg 39%
    19:00 +17°C° 0 mm 4 m/S 737 mmHg 41%
    20:00 +15°C° 0 mm 4 m/S 738 mmHg 42%
    21:00 +14°C° 0 mm 4 m/S 737 mmHg 43%
    22:00 +14°C° 0 mm 4 m/S 737 mmHg 44%
    23:00 +13°C° 0 mm 4 m/S 737 mmHg 45%

    1 Juni, Donnerstag

    Zeit Temperatur Niederschläge Wind Luftdruck Luftfeuchtigkeit
    00:00 +13°C° 0 mm 4 m/S 737 mmHg 45%
    01:00 +13°C° 0 mm 5 m/S 737 mmHg 45%
    02:00 +12°C° 0 mm 5 m/S 737 mmHg 45%
    03:00 +12°C° 0 mm 4 m/S 737 mmHg 44%
    04:00 +12°C° 0 mm 4 m/S 737 mmHg 44%
    05:00 +12°C° 0 mm 4 m/S 737 mmHg 44%
    06:00 +12°C° 0 mm 4 m/S 738 mmHg 43%
    07:00 +12°C° 0 mm 4 m/S 738 mmHg 42%
    08:00 +13°C° 0 mm 4 m/S 739 mmHg 40%
    09:00 +15°C° 0 mm 5 m/S 739 mmHg 36%
    10:00 +19°C° 0 mm 5 m/S 739 mmHg 31%
    11:00 +21°C° 0 mm 6 m/S 739 mmHg 26%
    12:00 +22°C° 0 mm 5 m/S 738 mmHg 25%
    13:00 +23°C° 0 mm 5 m/S 738 mmHg 23%
    14:00 +25°C° 0 mm 4 m/S 737 mmHg 22%
    15:00 +22°C° 0 mm 4 m/S 737 mmHg 25%
    16:00 +21°C° 0 mm 3 m/S 737 mmHg 28%
    17:00 +19°C° 0 mm 2 m/S 737 mmHg 31%
    18:00 +18°C° 0 mm 3 m/S 738 mmHg 32%
    19:00 +18°C° 0 mm 3 m/S 738 mmHg 33%
    20:00 +17°C° 0 mm 3 m/S 739 mmHg 34%
    21:00 +17°C° 0 mm 3 m/S 739 mmHg 35%
    22:00 +16°C° 0 mm 3 m/S 739 mmHg 35%
    23:00 +16°C° 0 mm 3 m/S 738 mmHg 36%
    Mehr zeigen